When you browse on this site, cookies collect data to enhance your experience and personalize the content and advertising you see.
Visit our Privacy Policy to learn more. By continuing to use the site, you agree to this use of cookies and data.
  • In Portugal
  • List of Countries
  • For 7 days
  • Water Temperature
  • Weather Map
  • Weather Widgets
  • user-avatar
    Login

    Hourly Weather Sydney

    Today, 18 November, Monday

    Time Temperature Precipitation Wind Pressure Humidity
    00:00 +17°C° 0.1 mm 2 mps 764 mmHg 80%
    01:00 +17°C° 0.1 mm 2 mps 763 mmHg 80%
    02:00 +16°C° 0 mm 2 mps 763 mmHg 82%
    03:00 +16°C° 0 mm 2 mps 763 mmHg 83%
    04:00 +16°C° 0 mm 1 mps 763 mmHg 83%
    05:00 +17°C° 0 mm 2 mps 763 mmHg 81%
    06:00 +17°C° 0 mm 2 mps 763 mmHg 79%
    07:00 +18°C° 0 mm 3 mps 763 mmHg 77%
    08:00 +20°C° 0 mm 3 mps 763 mmHg 65%
    09:00 +23°C° 0 mm 4 mps 763 mmHg 53%
    10:00 +26°C° 0 mm 4 mps 762 mmHg 41%
    11:00 +28°C° 0 mm 4 mps 761 mmHg 35%
    12:00 +30°C° 0 mm 5 mps 760 mmHg 28%
    13:00 +33°C° 0 mm 6 mps 760 mmHg 22%
    14:00 +30°C° 0 mm 6 mps 759 mmHg 30%
    15:00 +29°C° 0 mm 7 mps 758 mmHg 37%
    16:00 +28°C° 0 mm 7 mps 758 mmHg 40%
    17:00 +26°C° 0 mm 6 mps 758 mmHg 46%
    18:00 +23°C° 0 mm 6 mps 758 mmHg 53%
    19:00 +21°C° 0 mm 5 mps 758 mmHg 60%
    20:00 +21°C° 0 mm 4 mps 758 mmHg 63%
    21:00 +20°C° 0 mm 3 mps 758 mmHg 66%
    22:00 +19°C° 0 mm 2 mps 759 mmHg 65%
    23:00 +19°C° 0 mm 2 mps 758 mmHg 62%

    Tomorrow, 19 November, Tuesday

    Time Temperature Precipitation Wind Pressure Humidity
    00:00 +19°C° 0 mm 2 mps 758 mmHg 59%
    01:00 +18°C° 0 mm 2 mps 758 mmHg 56%
    02:00 +18°C° 0 mm 2 mps 758 mmHg 52%
    03:00 +17°C° 0 mm 3 mps 758 mmHg 48%
    04:00 +17°C° 0 mm 3 mps 758 mmHg 44%
    05:00 +19°C° 0 mm 3 mps 758 mmHg 39%
    06:00 +21°C° 0 mm 2 mps 758 mmHg 34%
    07:00 +24°C° 0 mm 2 mps 758 mmHg 29%
    08:00 +27°C° 0 mm 2 mps 758 mmHg 24%
    09:00 +31°C° 0 mm 2 mps 758 mmHg 20%
    10:00 +34°C° 0 mm 1 mps 757 mmHg 15%
    11:00 +36°C° 0 mm 2 mps 757 mmHg 13%
    12:00 +38°C° 0 mm 3 mps 756 mmHg 12%
    13:00 +40°C° 0 mm 4 mps 756 mmHg 10%
    14:00 +40°C° 0 mm 5 mps 755 mmHg 11%
    15:00 +39°C° 0 mm 5 mps 755 mmHg 12%
    16:00 +37°C° 0 mm 5 mps 754 mmHg 13%
    17:00 +33°C° 0 mm 6 mps 755 mmHg 28%
    18:00 +28°C° 0 mm 6 mps 756 mmHg 42%
    19:00 +23°C° 0 mm 7 mps 757 mmHg 56%
    20:00 +22°C° 0 mm 7 mps 758 mmHg 63%
    21:00 +21°C° 0 mm 7 mps 759 mmHg 70%
    22:00 +20°C° 0 mm 8 mps 760 mmHg 77%
    23:00 +18°C° 0 mm 7 mps 760 mmHg 76%

    Day after tomorrow, 20 November, Wednesday

    Time Temperature Precipitation Wind Pressure Humidity
    00:00 +19°C° 0 mm 6 mps 760 mmHg 76%
    01:00 +19°C° 0 mm 5 mps 760 mmHg 76%
    02:00 +19°C° 0 mm 5 mps 760 mmHg 75%
    03:00 +19°C° 0 mm 5 mps 760 mmHg 75%
    04:00 +17°C° 0 mm 5 mps 760 mmHg 74%
    05:00 +19°C° 0 mm 4 mps 761 mmHg 73%
    06:00 +19°C° 0 mm 3 mps 761 mmHg 71%
    07:00 +19°C° 0 mm 3 mps 762 mmHg 69%
    08:00 +20°C° 0 mm 3 mps 762 mmHg 66%
    09:00 +21°C° 0 mm 2 mps 762 mmHg 62%
    10:00 +23°C° 0 mm 2 mps 762 mmHg 59%
    11:00 +24°C° 0 mm 2 mps 761 mmHg 55%
    12:00 +25°C° 0 mm 3 mps 761 mmHg 50%
    13:00 +27°C° 0 mm 3 mps 760 mmHg 46%
    14:00 +26°C° 0 mm 4 mps 760 mmHg 49%
    15:00 +26°C° 0 mm 4 mps 760 mmHg 52%
    16:00 +25°C° 0 mm 4 mps 759 mmHg 54%
    17:00 +23°C° 0 mm 4 mps 760 mmHg 63%
    18:00 +21°C° 0 mm 4 mps 761 mmHg 71%
    19:00 +20°C° 0 mm 3 mps 762 mmHg 79%
    20:00 +19°C° 0 mm 3 mps 762 mmHg 82%
    21:00 +19°C° 0 mm 2 mps 762 mmHg 85%
    22:00 +19°C° 0 mm 1 mps 762 mmHg 88%
    23:00 +19°C° 0 mm 1 mps 762 mmHg 89%

    21 November, Thursday

    Time Temperature Precipitation Wind Pressure Humidity
    00:00 +19°C° 0 mm 1 mps 762 mmHg 89%
    01:00 +19°C° 0 mm 1 mps 761 mmHg 90%
    02:00 +18°C° 0 mm 2 mps 761 mmHg 91%
    03:00 +17°C° 0 mm 2 mps 761 mmHg 91%
    04:00 +17°C° 0 mm 2 mps 760 mmHg 91%
    05:00 +19°C° 0 mm 2 mps 760 mmHg 85%
    06:00 +20°C° 0 mm 2 mps 760 mmHg 78%
    07:00 +23°C° 0 mm 2 mps 761 mmHg 72%
    08:00 +26°C° 0 mm 3 mps 760 mmHg 61%
    09:00 +29°C° 0 mm 3 mps 760 mmHg 50%
    10:00 +32°C° 0 mm 4 mps 760 mmHg 39%
    11:00 +33°C° 0 mm 5 mps 759 mmHg 38%
    12:00 +34°C° 0 mm 6 mps 758 mmHg 37%
    13:00 +35°C° 0 mm 7 mps 757 mmHg 36%
    14:00 +34°C° 0 mm 7 mps 756 mmHg 40%
    15:00 +33°C° 0 mm 8 mps 756 mmHg 44%
    16:00 +32°C° 0 mm 9 mps 755 mmHg 49%
    17:00 +29°C° 0 mm 8 mps 755 mmHg 55%
    18:00 +27°C° 0 mm 8 mps 756 mmHg 62%
    19:00 +26°C° 0 mm 8 mps 756 mmHg 68%
    20:00 +24°C° 0 mm 7 mps 756 mmHg 70%
    21:00 +25°C° 0 mm 5 mps 756 mmHg 72%
    22:00 +23°C° 0 mm 4 mps 756 mmHg 74%
    23:00 +23°C° 0 mm 4 mps 756 mmHg 75%

    22 November, Friday

    Time Temperature Precipitation Wind Pressure Humidity
    00:00 +24°C° 0 mm 3 mps 755 mmHg 76%
    01:00 +22°C° 0 mm 3 mps 755 mmHg 76%
    02:00 +24°C° 0 mm 3 mps 755 mmHg 69%
    03:00 +24°C° 0 mm 3 mps 755 mmHg 61%
    04:00 +25°C° 0 mm 2 mps 755 mmHg 54%
    05:00 +25°C° 0 mm 4 mps 756 mmHg 56%
    06:00 +24°C° 0 mm 6 mps 757 mmHg 58%
    07:00 +26°C° 0 mm 8 mps 757 mmHg 60%
    08:00 +26°C° 0 mm 8 mps 758 mmHg 57%
    09:00 +26°C° 0 mm 8 mps 758 mmHg 55%
    10:00 +27°C° 0 mm 8 mps 759 mmHg 53%
    11:00 +26°C° 0 mm 8 mps 759 mmHg 54%
    12:00 +26°C° 0 mm 7 mps 758 mmHg 55%
    13:00 +26°C° 0 mm 7 mps 758 mmHg 55%
    14:00 +23°C° 0.3 mm 7 mps 758 mmHg 62%
    15:00 +22°C° 0.3 mm 6 mps 758 mmHg 68%
    16:00 +21°C° 0.3 mm 5 mps 758 mmHg 75%
    17:00 +20°C° 0.7 mm 5 mps 759 mmHg 78%
    18:00 +20°C° 0.7 mm 4 mps 759 mmHg 82%
    19:00 +19°C° 0.7 mm 3 mps 760 mmHg 85%
    20:00 +19°C° 0.8 mm 3 mps 760 mmHg 85%
    21:00 +19°C° 0.8 mm 3 mps 760 mmHg 86%
    22:00 +19°C° 0.8 mm 3 mps 761 mmHg 86%
    23:00 +18°C° 0.4 mm 3 mps 761 mmHg 87%

    23 November, Saturday

    Time Temperature Precipitation Wind Pressure Humidity
    00:00 +18°C° 0.4 mm 3 mps 760 mmHg 88%
    01:00 +18°C° 0.4 mm 3 mps 760 mmHg 89%
    02:00 +18°C° 0.1 mm 3 mps 760 mmHg 88%
    03:00 +18°C° 0.1 mm 3 mps 759 mmHg 87%
    04:00 +18°C° 0.1 mm 2 mps 759 mmHg 87%
    05:00 +18°C° 0.1 mm 2 mps 760 mmHg 85%
    06:00 +19°C° 0.1 mm 2 mps 760 mmHg 84%
    07:00 +19°C° 0.1 mm 2 mps 760 mmHg 82%
    08:00 +21°C° 0 mm 2 mps 760 mmHg 74%
    09:00 +24°C° 0 mm 2 mps 760 mmHg 66%
    10:00 +26°C° 0 mm 2 mps 760 mmHg 58%
    11:00 +26°C° 0 mm 3 mps 759 mmHg 57%
    12:00 +27°C° 0 mm 4 mps 759 mmHg 56%
    13:00 +27°C° 0 mm 4 mps 759 mmHg 54%
    14:00 +27°C° 0 mm 5 mps 758 mmHg 58%
    15:00 +26°C° 0 mm 5 mps 758 mmHg 61%
    16:00 +25°C° 0 mm 5 mps 758 mmHg 64%
    17:00 +23°C° 0.1 mm 4 mps 759 mmHg 69%
    18:00 +22°C° 0.1 mm 4 mps 760 mmHg 74%
    19:00 +21°C° 0.1 mm 3 mps 761 mmHg 79%
    20:00 +21°C° 0 mm 4 mps 761 mmHg 79%
    21:00 +20°C° 0 mm 5 mps 762 mmHg 80%
    22:00 +20°C° 0 mm 6 mps 763 mmHg 80%
    23:00 +20°C° 0 mm 6 mps 762 mmHg 80%
    Show more